owner,sensor,date,latitude,longitude,vertical_datum,direction_of_sea_water_velocity,sea_water_speed,upward_sea_water_velocity,qcFlag 
ADCP,ioos:station:wmo:42890:1,2013-02-01T00:14:00Z,27.6250,-90.4410,15.2,48.0,43.0,-9999.0,'11111222,11111222,99999999' 
ADCP,ioos:station:wmo:42890:1,2013-02-01T00:34:00Z,27.6250,-90.4410,15.2,51.0,42.4,-9999.0,'11111222,11111222,99999999' 
ADCP,ioos:station:wmo:42890:1,2013-02-01T00:54:00Z,27.6250,-90.4410,15.2,54.0,45.7,-9999.0,'11111222,11111222,99999999' 
ADCP,ioos:station:wmo:42890:1,2013-02-01T01:14:00Z,27.6250,-90.4410,15.2,55.0,47.2,-9999.0,'11111222,11111222,99999999' 
ADCP,ioos:station:wmo:42890:1,2013-02-01T01:34:00Z,27.6250,-90.4410,15.2,54.0,45.7,-9999.0,'11111222,11111222,99999999' 
ADCP,ioos:station:wmo:42890:1,2013-02-01T01:54:00Z,27.6250,-90.4410,15.2,54.0,42.7,-9999.0,'11111222,11111222,99999999' 
ADCP,ioos:station:wmo:42890:1,2013-02-01T02:14:00Z,27.6250,-90.4410,15.2,62.0,49.3,-9999.0,'11111222,11111222,99999999' 
ADCP,ioos:station:wmo:42890:1,2013-02-01T02:34:00Z,27.6250,-90.4410,15.2,61.0,37.2,-9999.0,'11111222,11111222,99999999' 
ADCP,ioos:station:wmo:42890:1,2013-02-01T02:54:00Z,27.6250,-90.4410,15.2,59.0,45.5,-9999.0,'11111222,11111222,99999999' 
ADCP,ioos:station:wmo:42890:1,2013-02-01T03:14:00Z,27.6250,-90.4410,15.2,59.0,40.6,-9999.0,'11111222,11111222,99999999' 
ADCP,ioos:station:wmo:42890:1,2013-02-01T03:34:00Z,27.6250,-90.4410,15.2,60.0,37.9,-9999.0,'11111222,11111222,99999999' 
ADCP,ioos:station:wmo:42890:1,2013-02-01T03:54:00Z,27.6250,-90.4410,15.2,61.0,34.7,-9999.0,'11111222,11111222,99999999' 
ADCP,ioos:station:wmo:42890:1,2013-02-01T04:14:00Z,27.6250,-90.4410,15.2,61.0,38.3,-9999.0,'11111222,11111222,99999999' 
ADCP,ioos:station:wmo:42890:1,2013-02-01T04:34:00Z,27.6250,-90.4410,15.2,62.0,42.4,-9999.0,'11111222,11111222,99999999' 
ADCP,ioos:station:wmo:42890:1,2013-02-01T04:54:00Z,27.6250,-90.4410,15.2,61.0,40.0,-9999.0,'11111222,11111222,99999999' 
ADCP,ioos:station:wmo:42890:1,2013-02-01T05:14:00Z,27.6250,-90.4410,15.2,61.0,38.4,-9999.0,'11111222,11111222,99999999' 
ADCP,ioos:station:wmo:42890:1,2013-02-01T05:34:00Z,27.6250,-90.4410,15.2,61.0,32.1,-9999.0,'11111222,11111222,99999999' 
ADCP,ioos:station:wmo:42890:1,2013-02-01T05:54:00Z,27.6250,-90.4410,15.2,64.0,39.7,-9999.0,'11111222,11111222,99999999' 
ADCP,ioos:station:wmo:42890:1,2013-02-01T06:14:00Z,27.6250,-90.4410,15.2,61.0,32.9,-9999.0,'11111222,11111222,99999999' 
ADCP,ioos:station:wmo:42890:1,2013-02-01T06:34:00Z,27.6250,-90.4410,15.2,59.0,28.7,-9999.0,'11111222,11111222,99999999' 
ADCP,ioos:station:wmo:42890:1,2013-02-01T06:54:00Z,27.6250,-90.4410,15.2,60.0,31.4,-9999.0,'11111222,11111222,99999999' 
ADCP,ioos:station:wmo:42890:1,2013-02-01T07:14:00Z,27.6250,-90.4410,15.2,54.0,23.3,-9999.0,'11111222,11111222,99999999' 
ADCP,ioos:station:wmo:42890:1,2013-02-01T07:34:00Z,27.6250,-90.4410,15.2,56.0,22.7,-9999.0,'11111222,11111222,99999999' 
ADCP,ioos:station:wmo:42890:1,2013-02-01T07:54:00Z,27.6250,-90.4410,15.2,57.0,21.5,-9999.0,'11111222,11111222,99999999' 
ADCP,ioos:station:wmo:42890:1,2013-02-01T08:14:00Z,27.6250,-90.4410,15.2,49.0,20.8,-9999.0,'11111222,11111222,99999999' 
ADCP,ioos:station:wmo:42890:1,2013-02-01T08:34:00Z,27.6250,-90.4410,15.2,57.0,23.4,-9999.0,'11111222,11111222,99999999' 
ADCP,ioos:station:wmo:42890:1,2013-02-01T08:54:00Z,27.6250,-90.4410,15.2,58.0,21.2,-9999.0,'11111222,11111222,99999999' 
ADCP,ioos:station:wmo:42890:1,2013-02-01T09:14:00Z,27.6250,-90.4410,15.2,55.0,17.7,-9999.0,'11111222,11111222,99999999' 
ADCP,ioos:station:wmo:42890:1,2013-02-01T09:34:00Z,27.6250,-90.4410,15.2,50.0,23.2,-9999.0,'11111222,11111222,99999999' 
ADCP,ioos:station:wmo:42890:1,2013-02-01T09:54:00Z,27.6250,-90.4410,15.2,28.0,23.0,-9999.0,'11111222,11111222,99999999' 
ADCP,ioos:station:wmo:42890:1,2013-02-01T10:14:00Z,27.6250,-90.4410,15.2,31.0,18.7,-9999.0,'11111222,11111222,99999999' 
ADCP,ioos:station:wmo:42890:1,2013-02-01T10:34:00Z,27.6250,-90.4410,15.2,47.0,20.0,-9999.0,'11111222,11111222,99999999' 
ADCP,ioos:station:wmo:42890:1,2013-02-01T10:54:00Z,27.6250,-90.4410,15.2,43.0,20.5,-9999.0,'11111222,11111222,99999999' 
ADCP,ioos:station:wmo:42890:1,2013-02-01T11:14:00Z,27.6250,-90.4410,15.2,34.0,13.5,-9999.0,'11111222,11111222,99999999' 
ADCP,ioos:station:wmo:42890:1,2013-02-01T11:34:00Z,27.6250,-90.4410,15.2,0.0,12.4,-9999.0,'11111222,11111222,99999999' 
ADCP,ioos:station:wmo:42890:1,2013-02-01T11:54:00Z,27.6250,-90.4410,15.2,37.0,15.6,-9999.0,'11111222,11111222,99999999' 
ADCP,ioos:station:wmo:42890:1,2013-02-01T12:14:00Z,27.6250,-90.4410,15.2,15.0,13.5,-9999.0,'11111222,11111222,99999999' 
ADCP,ioos:station:wmo:42890:1,2013-02-01T12:34:00Z,27.6250,-90.4410,15.2,345.0,11.8,-9999.0,'11111222,11111222,99999999' 
ADCP,ioos:station:wmo:42890:1,2013-02-01T12:54:00Z,27.6250,-90.4410,15.2,342.0,14.2,-9999.0,'11111222,11111222,99999999' 
ADCP,ioos:station:wmo:42890:1,2013-02-01T13:14:00Z,27.6250,-90.4410,15.2,328.0,21.1,-9999.0,'11111222,11111222,99999999' 
ADCP,ioos:station:wmo:42890:1,2013-02-01T13:34:00Z,27.6250,-90.4410,15.2,0.0,14.5,-9999.0,'11111222,11111222,99999999' 
ADCP,ioos:station:wmo:42890:1,2013-02-01T13:54:00Z,27.6250,-90.4410,15.2,330.0,24.4,-9999.0,'11111222,11111222,99999999' 
ADCP,ioos:station:wmo:42890:1,2013-02-01T14:14:00Z,27.6250,-90.4410,15.2,5.0,18.7,-9999.0,'11111222,11111222,99999999' 
ADCP,ioos:station:wmo:42890:1,2013-02-01T14:34:00Z,27.6250,-90.4410,15.2,354.0,18.6,-9999.0,'11111222,11111222,99999999' 
ADCP,ioos:station:wmo:42890:1,2013-02-01T14:54:00Z,27.6250,-90.4410,15.2,349.0,16.7,-9999.0,'11111222,11111222,99999999' 
ADCP,ioos:station:wmo:42890:1,2013-02-01T15:14:00Z,27.6250,-90.4410,15.2,336.0,15.5,-9999.0,'11111222,11111222,99999999' 
ADCP,ioos:station:wmo:42890:1,2013-02-01T15:34:00Z,27.6250,-90.4410,15.2,339.0,20.0,-9999.0,'11111222,11111222,99999999' 
ADCP,ioos:station:wmo:42890:1,2013-02-01T15:54:00Z,27.6250,-90.4410,15.2,313.0,26.8,-9999.0,'11111222,11111222,99999999' 
ADCP,ioos:station:wmo:42890:1,2013-02-01T16:14:00Z,27.6250,-90.4410,15.2,319.0,31.5,-9999.0,'11111222,11111222,99999999' 
ADCP,ioos:station:wmo:42890:1,2013-02-01T16:34:00Z,27.6250,-90.4410,15.2,344.0,16.4,-9999.0,'11111222,11111222,99999999' 
ADCP,ioos:station:wmo:42890:1,2013-02-01T16:54:00Z,27.6250,-90.4410,15.2,355.0,20.7,-9999.0,'11111222,11111222,99999999' 
ADCP,ioos:station:wmo:42890:1,2013-02-01T17:14:00Z,27.6250,-90.4410,15.2,322.0,18.7,-9999.0,'11111222,11111222,99999999' 
ADCP,ioos:station:wmo:42890:1,2013-02-01T17:34:00Z,27.6250,-90.4410,15.2,338.0,19.4,-9999.0,'11111222,11111222,99999999' 
ADCP,ioos:station:wmo:42890:1,2013-02-01T17:54:00Z,27.6250,-90.4410,15.2,314.0,25.7,-9999.0,'11111222,11111222,99999999' 
ADCP,ioos:station:wmo:42890:1,2013-02-01T18:14:00Z,27.6250,-90.4410,15.2,345.0,23.2,-9999.0,'11111222,11111222,99999999' 
ADCP,ioos:station:wmo:42890:1,2013-02-01T18:34:00Z,27.6250,-90.4410,15.2,351.0,28.0,-9999.0,'11111222,11111222,99999999' 
ADCP,ioos:station:wmo:42890:1,2013-02-01T18:54:00Z,27.6250,-90.4410,15.2,335.0,20.8,-9999.0,'11111222,11111222,99999999' 
ADCP,ioos:station:wmo:42890:1,2013-02-01T19:14:00Z,27.6250,-90.4410,15.2,327.0,22.0,-9999.0,'11111222,11111222,99999999' 
ADCP,ioos:station:wmo:42890:1,2013-02-01T19:34:00Z,27.6250,-90.4410,15.2,358.0,27.4,-9999.0,'11111222,11111222,99999999' 
ADCP,ioos:station:wmo:42890:1,2013-02-01T19:54:00Z,27.6250,-90.4410,15.2,333.0,24.9,-9999.0,'11111222,11111222,99999999' 
ADCP,ioos:station:wmo:42890:1,2013-02-01T20:14:00Z,27.6250,-90.4410,15.2,343.0,25.8,-9999.0,'11111222,11111222,99999999' 
ADCP,ioos:station:wmo:42890:1,2013-02-01T20:34:00Z,27.6250,-90.4410,15.2,332.0,30.6,-9999.0,'11111222,11111222,99999999' 
ADCP,ioos:station:wmo:42890:1,2013-02-01T20:54:00Z,27.6250,-90.4410,15.2,339.0,29.8,-9999.0,'11111222,11111222,99999999' 
ADCP,ioos:station:wmo:42890:1,2013-02-01T21:14:00Z,27.6250,-90.4410,15.2,333.0,34.7,-9999.0,'11111222,11111222,99999999' 
ADCP,ioos:station:wmo:42890:1,2013-02-01T21:34:00Z,27.6250,-90.4410,15.2,336.0,36.6,-9999.0,'11111222,11111222,99999999' 
ADCP,ioos:station:wmo:42890:1,2013-02-01T21:54:00Z,27.6250,-90.4410,15.2,342.0,42.5,-9999.0,'11111222,11111222,99999999' 
ADCP,ioos:station:wmo:42890:1,2013-02-01T22:14:00Z,27.6250,-90.4410,15.2,340.0,45.6,-9999.0,'11111222,11111222,99999999' 
ADCP,ioos:station:wmo:42890:1,2013-02-01T22:34:00Z,27.6250,-90.4410,15.2,345.0,49.6,-9999.0,'11111222,11111222,99999999' 
ADCP,ioos:station:wmo:42890:1,2013-02-01T22:54:00Z,27.6250,-90.4410,15.2,311.0,64.3,-9999.0,'11111222,11111222,99999999' 
ADCP,ioos:station:wmo:42890:1,2013-02-01T23:14:00Z,27.6250,-90.4410,15.2,342.0,49.6,-9999.0,'11111222,11111222,99999999' 
ADCP,ioos:station:wmo:42890:1,2013-02-01T23:34:00Z,27.6250,-90.4410,15.2,334.0,59.8,-9999.0,'11111222,11111222,99999999' 
ADCP,ioos:station:wmo:42890:1,2013-02-01T23:54:00Z,27.6250,-90.4410,15.2,327.0,58.3,-9999.0,'11111222,11111222,99999999' 
ADCP,ioos:station:wmo:42890:1,2013-02-02T00:14:00Z,27.6250,-90.4410,15.2,336.0,57.9,-9999.0,'11111222,11111222,99999999' 
ADCP,ioos:station:wmo:42890:1,2013-02-02T00:34:00Z,27.6250,-90.4410,15.2,350.0,56.5,-9999.0,'11111222,11111222,99999999' 
ADCP,ioos:station:wmo:42890:1,2013-02-02T00:54:00Z,27.6250,-90.4410,15.2,357.0,54.6,-9999.0,'11111222,11111222,99999999' 
ADCP,ioos:station:wmo:42890:1,2013-02-02T01:14:00Z,27.6250,-90.4410,15.2,3.0,52.1,-9999.0,'11111222,11111222,99999999' 
ADCP,ioos:station:wmo:42890:1,2013-02-02T01:34:00Z,27.6250,-90.4410,15.2,1.0,43.0,-9999.0,'11111222,11111222,99999999' 
ADCP,ioos:station:wmo:42890:1,2013-02-02T01:54:00Z,27.6250,-90.4410,15.2,13.0,38.9,-9999.0,'11111222,11111222,99999999' 
ADCP,ioos:station:wmo:42890:1,2013-02-02T02:14:00Z,27.6250,-90.4410,15.2,23.0,41.3,-9999.0,'11111222,11111222,99999999' 
ADCP,ioos:station:wmo:42890:1,2013-02-02T02:34:00Z,27.6250,-90.4410,15.2,30.0,43.8,-9999.0,'11111222,11111222,99999999' 
ADCP,ioos:station:wmo:42890:1,2013-02-02T02:54:00Z,27.6250,-90.4410,15.2,32.0,39.5,-9999.0,'11111222,11111222,99999999' 
ADCP,ioos:station:wmo:42890:1,2013-02-02T03:14:00Z,27.6250,-90.4410,15.2,36.0,40.7,-9999.0,'11111222,11111222,99999999' 
ADCP,ioos:station:wmo:42890:1,2013-02-02T03:34:00Z,27.6250,-90.4410,15.2,39.0,41.5,-9999.0,'11111222,11111222,99999999' 
ADCP,ioos:station:wmo:42890:1,2013-02-02T03:54:00Z,27.6250,-90.4410,15.2,41.0,38.4,-9999.0,'11111222,11111222,99999999' 
ADCP,ioos:station:wmo:42890:1,2013-02-02T04:14:00Z,27.6250,-90.4410,15.2,44.0,34.3,-9999.0,'11111222,11111222,99999999' 
ADCP,ioos:station:wmo:42890:1,2013-02-02T04:34:00Z,27.6250,-90.4410,15.2,48.0,30.9,-9999.0,'11111222,11111222,99999999' 
ADCP,ioos:station:wmo:42890:1,2013-02-02T04:54:00Z,27.6250,-90.4410,15.2,48.0,29.0,-9999.0,'11111222,11111222,99999999' 
ADCP,ioos:station:wmo:42890:1,2013-02-02T05:14:00Z,27.6250,-90.4410,15.2,49.0,25.1,-9999.0,'11111222,11111222,99999999' 
ADCP,ioos:station:wmo:42890:1,2013-02-02T05:34:00Z,27.6250,-90.4410,15.2,49.0,26.6,-9999.0,'11111222,11111222,99999999' 
ADCP,ioos:station:wmo:42890:1,2013-02-02T05:54:00Z,27.6250,-90.4410,15.2,50.0,30.0,-9999.0,'11111222,11111222,99999999' 
ADCP,ioos:station:wmo:42890:1,2013-02-02T06:14:00Z,27.6250,-90.4410,15.2,52.0,25.9,-9999.0,'11111222,11111222,99999999' 
ADCP,ioos:station:wmo:42890:1,2013-02-02T06:34:00Z,27.6250,-90.4410,15.2,56.0,24.5,-9999.0,'11111222,11111222,99999999' 
ADCP,ioos:station:wmo:42890:1,2013-02-02T06:54:00Z,27.6250,-90.4410,15.2,61.0,23.9,-9999.0,'11111222,11111222,99999999' 
ADCP,ioos:station:wmo:42890:1,2013-02-02T07:14:00Z,27.6250,-90.4410,15.2,71.0,25.8,-9999.0,'11111222,11111222,99999999' 
ADCP,ioos:station:wmo:42890:1,2013-02-02T07:34:00Z,27.6250,-90.4410,15.2,80.0,21.7,-9999.0,'11111222,11111222,99999999' 
ADCP,ioos:station:wmo:42890:1,2013-02-02T07:54:00Z,27.6250,-90.4410,15.2,90.0,24.7,-9999.0,'11111222,11111222,99999999' 
ADCP,ioos:station:wmo:42890:1,2013-02-02T08:14:00Z,27.6250,-90.4410,15.2,89.0,24.8,-9999.0,'11111222,11111222,99999999' 
ADCP,ioos:station:wmo:42890:1,2013-02-02T08:34:00Z,27.6250,-90.4410,15.2,87.0,24.0,-9999.0,'11111222,11111222,99999999' 
ADCP,ioos:station:wmo:42890:1,2013-02-02T08:54:00Z,27.6250,-90.4410,15.2,84.0,25.3,-9999.0,'11111222,11111222,99999999' 
ADCP,ioos:station:wmo:42890:1,2013-02-02T09:14:00Z,27.6250,-90.4410,15.2,83.0,24.7,-9999.0,'11111222,11111222,99999999' 
ADCP,ioos:station:wmo:42890:1,2013-02-02T09:34:00Z,27.6250,-90.4410,15.2,80.0,23.4,-9999.0,'11111222,11111222,99999999' 
ADCP,ioos:station:wmo:42890:1,2013-02-02T09:54:00Z,27.6250,-90.4410,15.2,80.0,21.3,-9999.0,'11111222,11111222,99999999' 
ADCP,ioos:station:wmo:42890:1,2013-02-02T10:14:00Z,27.6250,-90.4410,15.2,81.0,18.9,-9999.0,'11111222,11111222,99999999' 
ADCP,ioos:station:wmo:42890:1,2013-02-02T10:34:00Z,27.6250,-90.4410,15.2,80.0,14.8,-9999.0,'11111222,11111222,99999999' 
ADCP,ioos:station:wmo:42890:1,2013-02-02T10:54:00Z,27.6250,-90.4410,15.2,73.0,11.8,-9999.0,'11111222,11111222,99999999' 
ADCP,ioos:station:wmo:42890:1,2013-02-02T11:14:00Z,27.6250,-90.4410,15.2,74.0,10.7,-9999.0,'11111222,11111222,99999999' 
ADCP,ioos:station:wmo:42890:1,2013-02-02T11:34:00Z,27.6250,-90.4410,15.2,58.0,12.8,-9999.0,'11111222,11111222,99999999' 
ADCP,ioos:station:wmo:42890:1,2013-02-02T11:54:00Z,27.6250,-90.4410,15.2,188.0,6.9,-9999.0,'11133222,11111222,99999999' 
ADCP,ioos:station:wmo:42890:1,2013-02-02T12:14:00Z,27.6250,-90.4410,15.2,98.0,16.3,-9999.0,'11111222,11111222,99999999' 
ADCP,ioos:station:wmo:42890:1,2013-02-02T12:34:00Z,27.6250,-90.4410,15.2,240.0,10.9,-9999.0,'11111222,11111222,99999999' 
ADCP,ioos:station:wmo:42890:1,2013-02-02T12:54:00Z,27.6250,-90.4410,15.2,223.0,7.6,-9999.0,'11133222,11111222,99999999' 
ADCP,ioos:station:wmo:42890:1,2013-02-02T13:14:00Z,27.6250,-90.4410,15.2,266.0,13.9,-9999.0,'11111222,11111222,99999999' 
ADCP,ioos:station:wmo:42890:1,2013-02-02T13:34:00Z,27.6250,-90.4410,15.2,336.0,7.7,-9999.0,'11133222,11111222,99999999' 
ADCP,ioos:station:wmo:42890:1,2013-02-02T13:54:00Z,27.6250,-90.4410,15.2,258.0,8.9,-9999.0,'11133222,11111222,99999999' 
ADCP,ioos:station:wmo:42890:1,2013-02-02T14:14:00Z,27.6250,-90.4410,15.2,122.0,11.9,-9999.0,'11111222,11111222,99999999' 
ADCP,ioos:station:wmo:42890:1,2013-02-02T14:34:00Z,27.6250,-90.4410,15.2,143.0,13.4,-9999.0,'11111222,11111222,99999999' 
ADCP,ioos:station:wmo:42890:1,2013-02-02T14:54:00Z,27.6250,-90.4410,15.2,314.0,6.9,-9999.0,'11133222,11111222,99999999' 
ADCP,ioos:station:wmo:42890:1,2013-02-02T15:14:00Z,27.6250,-90.4410,15.2,322.0,11.0,-9999.0,'11111222,11111222,99999999' 
ADCP,ioos:station:wmo:42890:1,2013-02-02T15:34:00Z,27.6250,-90.4410,15.2,333.0,13.9,-9999.0,'11111222,11111222,99999999' 
ADCP,ioos:station:wmo:42890:1,2013-02-02T15:54:00Z,27.6250,-90.4410,15.2,350.0,21.1,-9999.0,'11111222,11111222,99999999' 
ADCP,ioos:station:wmo:42890:1,2013-02-02T16:14:00Z,27.6250,-90.4410,15.2,350.0,25.6,-9999.0,'11111222,11111222,99999999' 
ADCP,ioos:station:wmo:42890:1,2013-02-02T16:34:00Z,27.6250,-90.4410,15.2,8.0,27.7,-9999.0,'11111222,11111222,99999999' 
ADCP,ioos:station:wmo:42890:1,2013-02-02T16:54:00Z,27.6250,-90.4410,15.2,357.0,29.5,-9999.0,'11111222,11111222,99999999' 
ADCP,ioos:station:wmo:42890:1,2013-02-02T17:14:00Z,27.6250,-90.4410,15.2,347.0,32.6,-9999.0,'11111222,11111222,99999999' 
ADCP,ioos:station:wmo:42890:1,2013-02-02T17:34:00Z,27.6250,-90.4410,15.2,2.0,31.6,-9999.0,'11111222,11111222,99999999' 
ADCP,ioos:station:wmo:42890:1,2013-02-02T17:54:00Z,27.6250,-90.4410,15.2,21.0,51.6,-9999.0,'11111222,11111222,99999999' 
ADCP,ioos:station:wmo:42890:1,2013-02-02T18:14:00Z,27.6250,-90.4410,15.2,3.0,46.0,-9999.0,'11111222,11111222,99999999' 
ADCP,ioos:station:wmo:42890:1,2013-02-02T18:34:00Z,27.6250,-90.4410,15.2,345.0,47.2,-9999.0,'11111222,11111222,99999999' 
ADCP,ioos:station:wmo:42890:1,2013-02-02T18:54:00Z,27.6250,-90.4410,15.2,355.0,51.6,-9999.0,'11111222,11111222,99999999' 
ADCP,ioos:station:wmo:42890:1,2013-02-02T19:14:00Z,27.6250,-90.4410,15.2,358.0,50.0,-9999.0,'11111222,11111222,99999999' 
ADCP,ioos:station:wmo:42890:1,2013-02-02T19:34:00Z,27.6250,-90.4410,15.2,0.0,49.4,-9999.0,'11111222,11111222,99999999' 
ADCP,ioos:station:wmo:42890:1,2013-02-02T19:54:00Z,27.6250,-90.4410,15.2,347.0,53.7,-9999.0,'11111222,11111222,99999999' 
ADCP,ioos:station:wmo:42890:1,2013-02-02T20:14:00Z,27.6250,-90.4410,15.2,352.0,55.1,-9999.0,'11111222,11111222,99999999' 
ADCP,ioos:station:wmo:42890:1,2013-02-02T20:34:00Z,27.6250,-90.4410,15.2,349.0,51.0,-9999.0,'11111222,11111222,99999999' 
ADCP,ioos:station:wmo:42890:1,2013-02-02T20:54:00Z,27.6250,-90.4410,15.2,343.0,49.8,-9999.0,'11111222,11111222,99999999' 
ADCP,ioos:station:wmo:42890:1,2013-02-02T21:14:00Z,27.6250,-90.4410,15.2,353.0,52.7,-9999.0,'11111222,11111222,99999999' 
ADCP,ioos:station:wmo:42890:1,2013-02-02T21:34:00Z,27.6250,-90.4410,15.2,347.0,53.8,-9999.0,'11111222,11111222,99999999' 
ADCP,ioos:station:wmo:42890:1,2013-02-02T21:54:00Z,27.6250,-90.4410,15.2,341.0,50.7,-9999.0,'11111222,11111222,99999999' 
ADCP,ioos:station:wmo:42890:1,2013-02-02T22:14:00Z,27.6250,-90.4410,15.2,341.0,53.3,-9999.0,'11111222,11111222,99999999' 
ADCP,ioos:station:wmo:42890:1,2013-02-02T22:34:00Z,27.6250,-90.4410,15.2,328.0,51.3,-9999.0,'11111222,11111222,99999999' 
ADCP,ioos:station:wmo:42890:1,2013-02-02T22:54:00Z,27.6250,-90.4410,15.2,343.0,51.8,-9999.0,'11111222,11111222,99999999' 
ADCP,ioos:station:wmo:42890:1,2013-02-02T23:14:00Z,27.6250,-90.4410,15.2,332.0,49.8,-9999.0,'11111222,11111222,99999999' 
ADCP,ioos:station:wmo:42890:1,2013-02-02T23:34:00Z,27.6250,-90.4410,15.2,341.0,53.6,-9999.0,'11111222,11111222,99999999' 
ADCP,ioos:station:wmo:42890:1,2013-02-02T23:54:00Z,27.6250,-90.4410,15.2,348.0,54.0,-9999.0,'11111222,11111222,99999999' 
ADCP,ioos:station:wmo:42890:1,2013-02-03T00:14:00Z,27.6250,-90.4410,15.2,357.0,54.2,-9999.0,'11111222,11111222,99999999' 
ADCP,ioos:station:wmo:42890:1,2013-02-03T00:34:00Z,27.6250,-90.4410,15.2,354.0,50.5,-9999.0,'11111222,11111222,99999999' 
ADCP,ioos:station:wmo:42890:1,2013-02-03T00:54:00Z,27.6250,-90.4410,15.2,352.0,52.7,-9999.0,'11111222,11111222,99999999' 
ADCP,ioos:station:wmo:42890:1,2013-02-03T01:14:00Z,27.6250,-90.4410,15.2,9.0,48.8,-9999.0,'11111222,11111222,99999999' 
ADCP,ioos:station:wmo:42890:1,2013-02-03T01:34:00Z,27.6250,-90.4410,15.2,7.0,48.2,-9999.0,'11111222,11111222,99999999' 
ADCP,ioos:station:wmo:42890:1,2013-02-03T01:54:00Z,27.6250,-90.4410,15.2,4.0,45.6,-9999.0,'11111222,11111222,99999999' 
ADCP,ioos:station:wmo:42890:1,2013-02-03T02:14:00Z,27.6250,-90.4410,15.2,355.0,44.0,-9999.0,'11111222,11111222,99999999' 
ADCP,ioos:station:wmo:42890:1,2013-02-03T02:34:00Z,27.6250,-90.4410,15.2,2.0,44.3,-9999.0,'11111222,11111222,99999999' 
ADCP,ioos:station:wmo:42890:1,2013-02-03T02:54:00Z,27.6250,-90.4410,15.2,14.0,50.8,-9999.0,'11111222,11111222,99999999' 
ADCP,ioos:station:wmo:42890:1,2013-02-03T03:14:00Z,27.6250,-90.4410,15.2,12.0,50.9,-9999.0,'11111222,11111222,99999999' 
ADCP,ioos:station:wmo:42890:1,2013-02-03T03:34:00Z,27.6250,-90.4410,15.2,15.0,51.1,-9999.0,'11111222,11111222,99999999' 
ADCP,ioos:station:wmo:42890:1,2013-02-03T03:54:00Z,27.6250,-90.4410,15.2,23.0,58.2,-9999.0,'11111222,11111222,99999999' 
ADCP,ioos:station:wmo:42890:1,2013-02-03T04:14:00Z,27.6250,-90.4410,15.2,18.0,52.7,-9999.0,'11111222,11111222,99999999' 
ADCP,ioos:station:wmo:42890:1,2013-02-03T04:34:00Z,27.6250,-90.4410,15.2,24.0,57.4,-9999.0,'11111222,11111222,99999999' 
ADCP,ioos:station:wmo:42890:1,2013-02-03T04:54:00Z,27.6250,-90.4410,15.2,20.0,51.4,-9999.0,'11111222,11111222,99999999' 
ADCP,ioos:station:wmo:42890:1,2013-02-03T05:14:00Z,27.6250,-90.4410,15.2,28.0,56.4,-9999.0,'11111222,11111222,99999999' 
ADCP,ioos:station:wmo:42890:1,2013-02-03T05:34:00Z,27.6250,-90.4410,15.2,26.0,50.2,-9999.0,'11111222,11111222,99999999' 
ADCP,ioos:station:wmo:42890:1,2013-02-03T05:54:00Z,27.6250,-90.4410,15.2,28.0,50.2,-9999.0,'11111222,11111222,99999999' 
ADCP,ioos:station:wmo:42890:1,2013-02-03T06:14:00Z,27.6250,-90.4410,15.2,29.0,46.7,-9999.0,'11111222,11111222,99999999' 
ADCP,ioos:station:wmo:42890:1,2013-02-03T06:34:00Z,27.6250,-90.4410,15.2,32.0,44.6,-9999.0,'11111222,11111222,99999999' 
ADCP,ioos:station:wmo:42890:1,2013-02-03T06:54:00Z,27.6250,-90.4410,15.2,32.0,41.9,-9999.0,'11111222,11111222,99999999' 
ADCP,ioos:station:wmo:42890:1,2013-02-03T07:14:00Z,27.6250,-90.4410,15.2,35.0,40.2,-9999.0,'11111222,11111222,99999999' 
ADCP,ioos:station:wmo:42890:1,2013-02-03T07:34:00Z,27.6250,-90.4410,15.2,25.0,39.2,-9999.0,'11111222,11111222,99999999' 
ADCP,ioos:station:wmo:42890:1,2013-02-03T07:54:00Z,27.6250,-90.4410,15.2,33.0,38.4,-9999.0,'11111222,11111222,99999999' 
ADCP,ioos:station:wmo:42890:1,2013-02-03T08:14:00Z,27.6250,-90.4410,15.2,35.0,39.5,-9999.0,'11111222,11111222,99999999' 
ADCP,ioos:station:wmo:42890:1,2013-02-03T08:34:00Z,27.6250,-90.4410,15.2,23.0,36.1,-9999.0,'11111222,11111222,99999999' 
ADCP,ioos:station:wmo:42890:1,2013-02-03T08:54:00Z,27.6250,-90.4410,15.2,42.0,43.3,-9999.0,'11111222,11111222,99999999' 
ADCP,ioos:station:wmo:42890:1,2013-02-03T09:14:00Z,27.6250,-90.4410,15.2,40.0,32.9,-9999.0,'11111222,11111222,99999999' 
ADCP,ioos:station:wmo:42890:1,2013-02-03T09:34:00Z,27.6250,-90.4410,15.2,45.0,30.8,-9999.0,'11111222,11111222,99999999' 
ADCP,ioos:station:wmo:42890:1,2013-02-03T09:54:00Z,27.6250,-90.4410,15.2,45.0,29.3,-9999.0,'11111222,11111222,99999999' 
ADCP,ioos:station:wmo:42890:1,2013-02-03T10:14:00Z,27.6250,-90.4410,15.2,42.0,27.8,-9999.0,'11111222,11111222,99999999' 
ADCP,ioos:station:wmo:42890:1,2013-02-03T10:34:00Z,27.6250,-90.4410,15.2,44.0,23.9,-9999.0,'11111222,11111222,99999999' 
ADCP,ioos:station:wmo:42890:1,2013-02-03T10:54:00Z,27.6250,-90.4410,15.2,50.0,27.3,-9999.0,'11111222,11111222,99999999' 
ADCP,ioos:station:wmo:42890:1,2013-02-03T11:14:00Z,27.6250,-90.4410,15.2,48.0,22.7,-9999.0,'11111222,11111222,99999999' 
ADCP,ioos:station:wmo:42890:1,2013-02-03T11:34:00Z,27.6250,-90.4410,15.2,32.0,10.9,-9999.0,'11111222,11111222,99999999' 
ADCP,ioos:station:wmo:42890:1,2013-02-03T11:54:00Z,27.6250,-90.4410,15.2,92.0,4.8,-9999.0,'11133222,11111222,99999999' 
ADCP,ioos:station:wmo:42890:1,2013-02-03T12:14:00Z,27.6250,-90.4410,15.2,94.0,7.7,-9999.0,'11133222,11111222,99999999' 
ADCP,ioos:station:wmo:42890:1,2013-02-03T12:34:00Z,27.6250,-90.4410,15.2,111.0,6.6,-9999.0,'11133222,11111222,99999999' 
ADCP,ioos:station:wmo:42890:1,2013-02-03T12:54:00Z,27.6250,-90.4410,15.2,114.0,9.1,-9999.0,'11133222,11111222,99999999' 
ADCP,ioos:station:wmo:42890:1,2013-02-03T13:14:00Z,27.6250,-90.4410,15.2,140.0,12.1,-9999.0,'11111222,11111222,99999999' 
ADCP,ioos:station:wmo:42890:1,2013-02-03T13:34:00Z,27.6250,-90.4410,15.2,106.0,11.8,-9999.0,'11111222,11111222,99999999' 
ADCP,ioos:station:wmo:42890:1,2013-02-03T13:54:00Z,27.6250,-90.4410,15.2,117.0,13.1,-9999.0,'11111222,11111222,99999999' 
ADCP,ioos:station:wmo:42890:1,2013-02-03T14:14:00Z,27.6250,-90.4410,15.2,215.0,16.2,-9999.0,'11111222,11111222,99999999' 
ADCP,ioos:station:wmo:42890:1,2013-02-03T14:34:00Z,27.6250,-90.4410,15.2,138.0,16.9,-9999.0,'11111222,11111222,99999999' 
ADCP,ioos:station:wmo:42890:1,2013-02-03T14:54:00Z,27.6250,-90.4410,15.2,196.0,8.3,-9999.0,'11133222,11111222,99999999' 
ADCP,ioos:station:wmo:42890:1,2013-02-03T15:14:00Z,27.6250,-90.4410,15.2,182.0,12.0,-9999.0,'11111222,11111222,99999999' 
ADCP,ioos:station:wmo:42890:1,2013-02-03T15:34:00Z,27.6250,-90.4410,15.2,208.0,8.9,-9999.0,'11133222,11111222,99999999' 
ADCP,ioos:station:wmo:42890:1,2013-02-03T15:54:00Z,27.6250,-90.4410,15.2,169.0,15.3,-9999.0,'11111222,11111222,99999999' 
ADCP,ioos:station:wmo:42890:1,2013-02-03T16:14:00Z,27.6250,-90.4410,15.2,208.0,8.1,-9999.0,'11133222,11111222,99999999' 
ADCP,ioos:station:wmo:42890:1,2013-02-03T16:34:00Z,27.6250,-90.4410,15.2,162.0,13.4,-9999.0,'11111222,11111222,99999999' 
ADCP,ioos:station:wmo:42890:1,2013-02-03T16:54:00Z,27.6250,-90.4410,15.2,207.0,13.3,-9999.0,'11111222,11111222,99999999' 
ADCP,ioos:station:wmo:42890:1,2013-02-03T17:14:00Z,27.6250,-90.4410,15.2,194.0,12.2,-9999.0,'11111222,11111222,99999999' 